[Date Prev][Date Next][Thread Prev][Thread Next] - [Date Index][Thread Index][Author Index]
2 Line ISS Keps 7-1
- Subject: [sarex] 2 Line ISS Keps 7-1
- From: "Dave Larsen PhD" <doc@xxxxxxxxxxx>
- Date: Thu, 30 Jun 2005 20:13:28 -0700
ISS
1 25544U 98067A 05182.09772630 .00002472 00000-0 22729-4 0 8136
2 25544 051.6441 189.5923 0001699 282.8622 184.4061 15.72384209377872
----
Via the sarex mailing list at AMSAT.ORG courtesy of AMSAT-NA.
To unsubscribe, send "unsubscribe sarex" to Majordomo@amsat.org
AMSAT Home